Flag for Australia Weather past 2 weeks in Brisbane, Queensland, Australia

Now
48 °F

Passing clouds.


Feels Like: 45 °F
Forecast: 45 / 73 °F
Wind: 8 mph from Southwest

Location: Brisbane Airport M. O

Current Time: Jul 6, 2015 at 7:16:06 AM

Latest Report: Jul 6, 2015 at 7:00 AM


Visibility: N/A

Pressure: 30.09 "Hg

Humidity: 94%

Dew point: 46 °F

Location of BrisbaneLocation

Historic Weather in Brisbane — Graph

°F

Brisbane temperature yesterday

Maximum temperature yesterday: 70 °F (at 11:00 AM)
Minimum temperature yesterday: 48 °F (at 6:30 AM)
Average temperature yesterday: 58 °F

Past Weeks' High & Low Weather Summary

 TemperatureHumidityPressure
High73 °F (Jul 1, 1:30 PM)100% (Jun 25, 3:00 AM)30.45 "Hg (Jun 25, 3:00 AM)
Low43 °F (Jul 3, 2:00 AM)30% (Jul 2, 3:30 PM)30.07 "Hg (Jul 2, 1:00 PM)
Average60 °F78%30.24 "Hg
* Reported Jun 21 5:00 AM — Jul 6 5:30 AM, Brisbane, Weather by CustomWeather, © 2015

Note: Actual official high and low records may vary slightly from our data, if they occured in-between our weather recording intervals... More about our weather records

Advertising

Brisbane weather history for previous 24 hours

 ConditionsComfort  
Time TempWeatherWind HumidityBarometerVisibility
5:30 AM
Mon, Jul 6
50 °FClear.8 mph88%30.09 "Hg10 mi
5:00 AM50 °FClear.7 mph94%30.09 "Hg10 mi
4:30 AM50 °FClear.6 mph94%30.09 "Hg10 mi
4:00 AM48 °FClear.6 mph100%30.09 "Hg10 mi
3:30 AM54 °FClear.6 mph88%30.09 "Hg10 mi
3:00 AM54 °FClear.6 mph88%30.09 "Hg10 mi
2:30 AM54 °FClear.2 mph88%30.09 "Hg10 mi
2:00 AM54 °FClear.5 mph94%30.09 "Hg10 mi
1:30 AM55 °FClear.3 mph88%30.12 "Hg10 mi
1:00 AM55 °FClear.5 mph88%30.12 "Hg10 mi
12:30 AM55 °FClear.6 mph88%30.12 "Hg10 mi
12:00 AM55 °FClear.7 mph88%30.12 "Hg10 mi
11:00 PM
Sun, Jul 5
55 °FClear.6 mph88%30.12 "Hg10 mi
10:00 PM55 °FClear.3 mph88%30.12 "Hg10 mi
9:30 PM57 °FClear.5 mph88%30.15 "Hg10 mi
9:00 PM59 °FClear.5 mph82%30.12 "Hg10 mi
8:30 PM57 °FClear.5 mph94%30.12 "Hg10 mi
8:00 PM59 °FClear.8 mph88%30.12 "Hg10 mi
7:30 PM59 °FClear.9 mph88%30.12 "Hg10 mi
7:00 PM59 °FClear.10 mph88%30.12 "Hg10 mi
6:30 PM59 °FClear.8 mph82%30.12 "Hg10 mi
6:00 PM61 °FPassing clouds.5 mph72%30.12 "HgN/A
5:30 PM63 °FPassing clouds.6 mph56%30.09 "HgN/A
5:00 PM64 °FPassing clouds.8 mph52%30.09 "HgN/A
4:00 PM70 °FPassing clouds.10 mph40%30.09 "HgN/A
3:30 PM70 °FPassing clouds.8 mph43%30.09 "HgN/A
3:00 PM68 °FPassing clouds.7 mph60%30.09 "HgN/A
2:30 PM68 °FScattered clouds.9 mph64%30.09 "HgN/A
1:30 PM68 °FScattered clouds.8 mph69%30.12 "HgN/A
1:00 PM68 °FScattered clouds.9 mph64%30.12 "HgN/A
12:30 PM68 °FScattered clouds.9 mph64%30.12 "HgN/A
12:00 PM68 °FPassing clouds.9 mph60%30.15 "HgN/A
11:30 AM70 °FPassing clouds.8 mph60%30.18 "HgN/A
11:00 AM70 °FPassing clouds.6 mph60%30.18 "HgN/A
10:30 AM66 °FScattered clouds.5 mph64%30.18 "HgN/A
10:00 AM64 °FScattered clouds.8 mph68%30.21 "HgN/A
9:30 AM63 °FScattered clouds.9 mph73%30.21 "HgN/A
9:00 AM59 °FPassing clouds.9 mph82%30.21 "HgN/A
8:30 AM57 °FScattered clouds.9 mph88%30.18 "HgN/A
8:00 AM55 °FPassing clouds.8 mph88%30.18 "HgN/A
7:30 AM52 °FPassing clouds.8 mph94%30.18 "HgN/A
7:00 AM48 °FPassing clouds.7 mph100%30.18 "HgN/A
Weather by CustomWeather, © 2015

See weather overviewHow to use our weather pages